Location: Arbocrest Acres
(39.2134°N, 84.4144°W)
Time: 21:20:29
(UTC+00:00)

X-37B - Pass Details

Date: 09 December 2022
Orbit: 277 x 277 km, 45.0° (Epoch: 01 November)

Event Time Altitude Azimuth Distance (km) Brightness Sun altitude
Rises 23:29:31 0° 262° (W) 1,909 5.9 -14.1°
Reaches altitude 10° 23:31:31 10° 272° (W) 1,098 4.0 -14.5°
Maximum altitude 23:33:49 36° 342° (NNW) 461 0.9 -14.9°
Enters shadow 23:34:13 33° 8° (N) 493 0.9 -15.0°
